Weather History for KOSU - May, 2013

Change the Weather History Date:

Friday, May 31, 2013

  Actual Average Record
Temperature  
Mean Temperature 76 °F -  
Max Temperature 87 °F 71 °F 91 °F (2011)
Min Temperature 68 °F 52 °F 42 °F (2001)
Cooling Degree Days 11    
Growing Degree Days 26 (Base 50)    
Moisture  
Dew Point 64 °F    
Average Humidity 74    
Maximum Humidity 94    
Minimum Humidity 48    
Precipitation  
Precipitation 0.32 in - - ()
Sea Level Pressure  
Sea Level Pressure 30.02 in    
Wind  
Wind Speed 9 mph (SSW)    
Max Wind Speed 21 mph    
Max Gust Speed 50 mph    
Visibility 9 miles    
Events Rain    
Averages and records for this station are not official NWS values.
T = Trace of Precipitation, MM = Missing Value Source: NWS Daily Summary

Daily Weather History Graph

Daily Weather History Graph

Search for Another Location

Airport or City:

Trip Planner

Search our weather history database for the weather conditions in past years. The results will help you decide how hot, cold, wet, or windy it might be!

Date:

Astronomy

May. 31, 2013 Rise Set
Actual Time 6:05 AM EDT 8:54 PM EDT
Civil Twilight 5:33 AM EDT 9:27 PM EDT
Nautical Twilight 4:53 AM EDT 10:07 PM EDT
Astronomical Twilight 4:06 AM EDT 10:53 PM EDT
Moon 1:28 AM EDT (5/31) 1:19 PM EDT (5/31)
Length of Visible Light 15h 53m
Length of Day
14h 49m
Waning Gibbous, 51% of the Moon is Illuminated
May 31
Waning Gibbous
May 31
Last Quarter
Jun 8
New
Jun 16
First Quarter
Jun 23
Full

Hourly Weather History & Observations

Time (EDT) Temp. Heat Index Dew Point Humidity Pressure Visibility Wind Dir Wind Speed Gust Speed Precip Events Conditions
12:53 AM 73.9 °F - 61.0 °F 64% 30.05 in 10.0 mi SSE 4.6 mph - N/A   Clear
1:53 AM 73.0 °F - 61.0 °F 66% 30.06 in 10.0 mi South 8.1 mph - N/A   Clear
2:53 AM 71.1 °F - 61.0 °F 70% 30.06 in 10.0 mi South 4.6 mph - N/A   Clear
3:53 AM 71.1 °F - 61.0 °F 70% 30.04 in 10.0 mi SSW 5.8 mph - N/A   Clear
4:53 AM 71.1 °F - 61.0 °F 70% 30.04 in 10.0 mi South 5.8 mph - N/A   Clear
5:53 AM 70.0 °F - 62.1 °F 76% 30.04 in 10.0 mi South 6.9 mph - N/A   Clear
6:53 AM 70.0 °F - 62.1 °F 76% 30.06 in 10.0 mi South 6.9 mph - N/A   Clear
7:53 AM 72.0 °F - 63.0 °F 73% 30.06 in 10.0 mi South 9.2 mph - N/A   Clear
8:53 AM 75.9 °F - 63.0 °F 64% 30.06 in 10.0 mi SSW 13.8 mph 18.4 mph N/A   Partly Cloudy
9:53 AM 80.1 °F 81.5 °F 63.0 °F 56% 30.06 in 10.0 mi South 11.5 mph 23.0 mph N/A   Scattered Clouds
10:53 AM 82.9 °F 84.4 °F 64.0 °F 53% 30.04 in 10.0 mi South 13.8 mph 26.5 mph N/A   Mostly Cloudy
11:53 AM 77.0 °F - 68.0 °F 74% 30.05 in 10.0 mi SSW 8.1 mph - 0.01 in   Overcast
12:53 PM 82.9 °F 84.4 °F 64.0 °F 53% 30.03 in 10.0 mi SSW 20.7 mph 31.1 mph N/A   Mostly Cloudy
1:53 PM 84.9 °F 85.9 °F 63.0 °F 48% 30.00 in 10.0 mi SSW 19.6 mph 29.9 mph N/A   Mostly Cloudy
2:41 PM 75.2 °F - 66.2 °F 73% 30.02 in 0.8 mi SW 8.1 mph 49.5 mph 0.18 in Rain Heavy Rain
2:51 PM 73.4 °F - 64.4 °F 73% 30.01 in 2.5 mi SW 5.8 mph - 0.19 in Rain Light Rain
2:53 PM 75.0 °F - 64.9 °F 71% 29.99 in 7.0 mi SW 9.2 mph - 0.19 in Rain Light Rain
3:53 PM 84.0 °F 85.8 °F 64.9 °F 53% 29.95 in 10.0 mi SSW 12.7 mph - 0.00 in   Mostly Cloudy
4:53 PM 84.0 °F 84.9 °F 63.0 °F 49% 29.95 in 10.0 mi SW 17.3 mph 25.3 mph N/A   Mostly Cloudy
5:53 PM 70.0 °F - 66.0 °F 87% 29.98 in 10.0 mi West 10.4 mph 18.4 mph N/A   Overcast
6:53 PM 72.0 °F - 66.0 °F 81% 29.96 in 10.0 mi Calm Calm - N/A   Scattered Clouds
7:22 PM 71.6 °F - 66.2 °F 83% 30.01 in 1.8 mi WSW 19.6 mph 29.9 mph 0.07 in Rain Heavy Rain
7:31 PM 69.8 °F - 66.2 °F 88% 30.02 in 3.0 mi SW 15.0 mph 24.2 mph 0.09 in Rain Light Rain
7:53 PM 70.0 °F - 66.9 °F 90% 30.00 in 5.0 mi SSW 10.4 mph 17.3 mph 0.11 in Rain Light Rain
8:53 PM 69.1 °F - 66.0 °F 90% 29.99 in 10.0 mi South 6.9 mph - 0.01 in Rain Light Rain
9:22 PM 68.0 °F - 66.2 °F 94% 29.99 in 10.0 mi South 8.1 mph - 0.00 in   Mostly Cloudy
9:30 PM 68.0 °F - 66.2 °F 94% 29.99 in 10.0 mi South 6.9 mph - 0.00 in   Mostly Cloudy
9:53 PM 68.0 °F - 66.0 °F 93% 29.98 in 10.0 mi SSE 6.9 mph - 0.00 in   Scattered Clouds
10:53 PM 68.0 °F - 66.0 °F 93% 29.98 in 10.0 mi SSE 6.9 mph - N/A   Clear
11:53 PM 68.0 °F - 64.9 °F 90% 29.98 in 10.0 mi SSE 4.6 mph - N/A   Clear